Weather History for Fort Eustis, VA

Change the Weather History Date:

Thursday, January 17, 2013

  Actual Average Record
Temperature  
Mean Temperature 40 °F -  
Max Temperature 46 °F 46 °F 62 °F (2012)
Min Temperature 33 °F 30 °F 12 °F (2009)
Degree Days  
Heating Degree Days 26    
Moisture  
Dew Point 41 °F    
Average Humidity 95    
Maximum Humidity 100    
Minimum Humidity 87    
Precipitation  
Precipitation 1.37 in - - ()
Sea Level Pressure  
Sea Level Pressure 30.04 in    
Wind  
Wind Speed 3 mph (NE)    
Max Wind Speed 16 mph    
Max Gust Speed 22 mph    
Visibility 6 miles    
Events Rain , Snow    
Averages and records for this station are not official NWS values.
T = Trace of Precipitation, MM = Missing Value Source: NWS Daily Summary

Daily Weather History Graph

Daily Weather History Graph

Search for Another Location

Airport:

Trip Planner

Search our weather history database for the weather conditions in past years. The results will help you decide how hot, cold, wet, or windy it might be!

Date:

Astronomy

Jan. 17, 2013 Rise Set
Actual Time 7:18 AM EST 5:15 PM EST
Civil Twilight 6:50 AM EST 5:43 PM EST
Nautical Twilight 6:18 AM EST 6:15 PM EST
Astronomical Twilight 5:46 AM EST 6:46 PM EST
Moon 10:34 AM EST (1/17) 11:53 PM EST (1/17)
Length of Visible Light 10h 53m
Length of Day
9h 57m
Waxing Crescent, 37% of the Moon is Illuminated
Jan 17
Waxing Crescent
Jan 18
First Quarter
Jan 26
Full
Feb 3
Last Quarter
Feb 10
New

Hourly Weather History & Observations

Time (EST) Temp. Windchill Dew Point Humidity Pressure Visibility Wind Dir Wind Speed Gust Speed Precip Events Conditions
12:55 AM 46.4 °F - 45.7 °F 97% 30.01 in 10.0 mi Calm Calm - N/A   Overcast
1:39 AM 46.4 °F - 46.4 °F 100% 30.02 in 8.0 mi Calm Calm - N/A Rain Light Rain
1:55 AM 46.6 °F - 45.9 °F 97% 30.04 in 3.0 mi Calm Calm - 0.02 in Rain Rain
2:01 AM 46.4 °F - 46.4 °F 100% 30.03 in 2.5 mi Calm Calm - N/A Rain Rain
2:15 AM 46.4 °F - 46.4 °F 100% 30.03 in 3.0 mi Calm Calm - N/A Rain Light Rain
2:16 AM 46.4 °F - 46.4 °F 100% 30.03 in 3.0 mi Calm Calm - N/A Rain Light Rain
2:19 AM 46.4 °F - 46.4 °F 100% 30.03 in 3.0 mi Calm Calm - N/A   Overcast
2:21 AM 46.4 °F - 46.4 °F 100% 30.02 in 4.0 mi Calm Calm - N/A Rain Light Rain
2:23 AM 46.4 °F - 46.4 °F 100% 30.02 in 4.0 mi Calm Calm - N/A   Light Drizzle
2:27 AM 46.4 °F 45.2 °F 46.4 °F 100% 30.02 in 4.0 mi ESE 3.5 mph - N/A   Light Drizzle
2:31 AM 46.4 °F 45.2 °F 46.4 °F 100% 30.01 in 5.0 mi ESE 3.5 mph - N/A   Light Drizzle
2:32 AM 46.4 °F 45.2 °F 46.4 °F 100% 30.01 in 5.0 mi ESE 3.5 mph - N/A   Light Drizzle
2:55 AM 46.0 °F - 45.3 °F 97% 30.02 in 9.0 mi Calm Calm - 0.08 in Rain Light Rain
3:03 AM 46.4 °F - 44.6 °F 93% 30.02 in 6.0 mi Calm Calm - N/A   Overcast
3:07 AM 46.4 °F - 44.6 °F 93% 30.02 in 6.0 mi Calm Calm - N/A   Light Drizzle
3:10 AM 46.4 °F - 44.6 °F 93% 30.02 in 6.0 mi Calm Calm - N/A   Light Drizzle
3:12 AM 46.4 °F - 44.6 °F 93% 30.02 in 6.0 mi Calm Calm - N/A   Light Drizzle
3:14 AM 46.4 °F - 44.6 °F 93% 30.01 in 6.0 mi Calm Calm - N/A   Light Drizzle
3:17 AM 46.4 °F - 44.6 °F 93% 30.01 in 6.0 mi Calm Calm - N/A   Light Drizzle
3:27 AM 46.4 °F - 44.6 °F 93% 30.01 in 6.0 mi Calm Calm - N/A   Overcast
3:36 AM 46.4 °F - 44.6 °F 93% 30.01 in 7.0 mi Calm Calm - N/A Rain Light Rain
3:38 AM 46.4 °F - 44.6 °F 93% 30.01 in 7.0 mi Calm Calm - N/A   Light Drizzle
3:46 AM 46.4 °F 45.2 °F 44.6 °F 93% 30.01 in 5.0 mi East 3.5 mph - N/A   Overcast
3:55 AM 45.9 °F 44.6 °F 45.1 °F 97% 30.00 in 5.0 mi ESE 3.5 mph - 0.06 in   Light Drizzle
4:16 AM 46.4 °F - 44.6 °F 93% 30.01 in 6.0 mi Calm Calm - N/A   Overcast
4:32 AM 46.4 °F 45.2 °F 44.6 °F 93% 30.00 in 4.0 mi ESE 3.5 mph - N/A   Light Drizzle
4:55 AM 46.0 °F - 45.3 °F 97% 30.01 in 5.0 mi Calm Calm - 0.06 in   Drizzle
5:23 AM 46.4 °F - 44.6 °F 93% 30.01 in 4.0 mi Calm Calm - N/A   Overcast
5:30 AM 46.4 °F - 44.6 °F 93% 30.02 in 4.0 mi Calm Calm - N/A Rain Light Rain
5:36 AM 46.4 °F - 46.4 °F 100% 30.02 in 4.0 mi Calm Calm - N/A Rain Light Rain
5:55 AM 46.4 °F - 45.7 °F 97% 30.02 in 4.0 mi Calm Calm - 0.11 in Rain Light Rain
5:57 AM 46.4 °F - 46.4 °F 100% 30.02 in 5.0 mi Calm Calm - N/A   Overcast
6:06 AM 46.4 °F - 46.4 °F 100% 30.03 in 6.0 mi Calm Calm - N/A   Drizzle
6:17 AM 46.4 °F - 46.4 °F 100% 30.02 in 6.0 mi Calm Calm - N/A   Light Drizzle
6:22 AM 46.4 °F 45.2 °F 46.4 °F 100% 30.03 in 5.0 mi NE 3.5 mph - N/A Rain Light Rain
6:46 AM 46.4 °F 43.5 °F 46.4 °F 100% 30.04 in 10.0 mi Variable 5.8 mph - N/A   Light Drizzle
6:51 AM 46.4 °F 43.5 °F 46.4 °F 100% 30.04 in 10.0 mi NE 5.8 mph - N/A   Light Drizzle
6:54 AM 46.4 °F 43.5 °F 46.4 °F 100% 30.04 in 9.0 mi NE 5.8 mph - N/A Rain Light Rain
6:55 AM 46.6 °F - 45.9 °F 97% 30.04 in 9.0 mi NE 4.6 mph - 0.04 in Rain Light Rain
6:57 AM 46.4 °F 43.5 °F 46.4 °F 100% 30.03 in 2.0 mi ENE 5.8 mph - N/A Rain Light Rain
7:02 AM 46.4 °F 43.5 °F 46.4 °F 100% 30.04 in 2.0 mi NE 5.8 mph - N/A   Overcast
7:09 AM 46.4 °F 42.9 °F 46.4 °F 100% 30.04 in 2.0 mi ENE 6.9 mph - N/A   Light Drizzle
7:30 AM 46.4 °F 44.3 °F 44.6 °F 93% 30.05 in 2.0 mi East 4.6 mph - N/A   Overcast
7:38 AM 46.4 °F 42.9 °F 44.6 °F 93% 30.05 in 2.0 mi ENE 6.9 mph - N/A   Light Drizzle
7:55 AM 46.0 °F 43.1 °F 45.3 °F 97% 30.06 in 2.0 mi ENE 5.8 mph - 0.04 in   Light Drizzle
7:56 AM 46.4 °F 43.5 °F 44.6 °F 93% 30.06 in 2.0 mi ENE 5.8 mph - N/A   Overcast
7:59 AM 46.4 °F 44.3 °F 44.6 °F 93% 30.06 in 2.0 mi ENE 4.6 mph - N/A Rain Light Rain
8:27 AM 46.4 °F 43.5 °F 44.6 °F 93% 30.09 in 2.0 mi East 5.8 mph - N/A   Overcast
8:39 AM 46.4 °F 43.5 °F 44.6 °F 93% 30.09 in 2.0 mi ENE 5.8 mph - N/A   Drizzle
8:55 AM 45.7 °F 42.7 °F 44.6 °F 96% 30.09 in 2.0 mi East 5.8 mph - 0.06 in Rain Light Rain
9:55 AM 45.3 °F 41.6 °F 44.1 °F 95% 30.12 in 2.0 mi ENE 6.9 mph - 0.07 in Rain Light Rain
10:55 AM 45.1 °F 42.0 °F 43.9 °F 95% 30.11 in 2.0 mi Variable 5.8 mph - 0.08 in   Light Drizzle
11:55 AM 43.5 °F 39.4 °F 41.7 °F 93% 30.09 in 2.0 mi NE 6.9 mph - 0.08 in Rain Light Rain
12:55 PM 43.5 °F 40.1 °F 41.5 °F 93% 30.06 in 4.0 mi NE 5.8 mph - 0.02 in   Light Drizzle
1:32 PM 42.8 °F 37.5 °F 41.0 °F 93% 30.04 in 5.0 mi ENE 9.2 mph - N/A   Overcast
1:55 PM 42.8 °F 37.0 °F 40.1 °F 90% 30.04 in 10.0 mi NE 10.4 mph - 0.00 in   Overcast
2:23 PM 42.8 °F 38.0 °F 39.2 °F 87% 30.05 in 3.0 mi NNE 8.1 mph - N/A Rain Light Rain
2:42 PM 41.0 °F 32.8 °F 39.2 °F 93% 30.05 in 4.0 mi NNE 16.1 mph 21.9 mph N/A Rain Light Rain
3:29 PM 41.0 °F 35.8 °F 39.2 °F 93% 30.05 in 2.5 mi North 8.1 mph - N/A Rain Light Rain
3:55 PM 40.1 °F 33.6 °F 37.9 °F 92% 30.06 in 3.0 mi NNE 10.4 mph - 0.01 in   Light Drizzle
4:33 PM 39.2 °F 35.0 °F 37.4 °F 93% 30.06 in 3.0 mi North 5.8 mph - N/A   Light Drizzle
4:55 PM 39.2 °F 33.0 °F 37.4 °F 93% 30.07 in 3.0 mi NE 9.2 mph 17.3 mph N/A Rain Light Rain
4:56 PM 39.2 °F 33.0 °F 37.4 °F 93% 30.08 in 10.0 mi NE 9.2 mph 17.3 mph N/A   Overcast
5:00 PM 39.2 °F 33.6 °F 37.4 °F 93% 30.08 in 10.0 mi NNE 8.1 mph 17.3 mph N/A   Overcast
5:08 PM 39.2 °F 32.0 °F 37.4 °F 93% 30.07 in 10.0 mi NNE 11.5 mph 17.3 mph N/A   Mostly Cloudy
5:09 PM 39.2 °F 32.0 °F 37.4 °F 93% 30.07 in 10.0 mi NNE 11.5 mph 17.3 mph N/A Rain Light Rain
5:18 PM 39.2 °F 33.0 °F 37.4 °F 93% 30.06 in 10.0 mi NNE 9.2 mph - N/A Rain Light Rain
5:20 PM 39.2 °F 33.0 °F 37.4 °F 93% 30.06 in 10.0 mi NNE 9.2 mph - N/A Rain Light Rain
5:55 PM 38.8 °F 32.6 °F 37.0 °F 93% 30.07 in 9.0 mi NNE 9.2 mph - 0.02 in Rain Light Rain
6:07 PM 39.2 °F 33.6 °F 37.4 °F 93% 30.06 in 6.0 mi NNE 8.1 mph - N/A   Overcast
6:16 PM 39.2 °F 33.0 °F 37.4 °F 93% 30.05 in 6.0 mi NE 9.2 mph - N/A   Overcast
6:31 PM 39.2 °F 33.6 °F 37.4 °F 93% 30.04 in 8.0 mi NE 8.1 mph - N/A Rain Light Rain
6:32 PM 39.2 °F 33.0 °F 37.4 °F 93% 30.04 in 8.0 mi NE 9.2 mph - N/A Rain Light Rain
6:37 PM 39.2 °F 33.0 °F 37.4 °F 93% 30.05 in 8.0 mi NNE 9.2 mph 17.3 mph N/A Rain Light Rain
6:47 PM 39.2 °F 33.0 °F 37.4 °F 93% 30.07 in 7.0 mi NNE 9.2 mph 17.3 mph N/A Rain Light Rain
6:55 PM 39.0 °F 34.0 °F 37.2 °F 93% 30.08 in 6.0 mi NNE 6.9 mph - 0.04 in   Overcast
7:08 PM 39.2 °F 32.0 °F 37.4 °F 93% 30.08 in 6.0 mi North 11.5 mph - N/A   Overcast
7:09 PM 39.2 °F 32.5 °F 37.4 °F 93% 30.08 in 6.0 mi North 10.4 mph - N/A   Overcast
7:18 PM 39.2 °F 32.5 °F 37.4 °F 93% 30.08 in 7.0 mi NNE 10.4 mph 18.4 mph N/A   Overcast
7:46 PM 39.2 °F 33.0 °F 35.6 °F 87% 30.05 in 10.0 mi NNE 9.2 mph 17.3 mph N/A Rain Light Rain
7:55 PM 38.3 °F 33.9 °F 36.5 °F 93% 30.06 in 10.0 mi NNE 5.8 mph - 0.04 in Rain Light Rain
7:59 PM 37.4 °F 31.4 °F 35.6 °F 93% 30.06 in 9.0 mi NNE 8.1 mph - N/A Rain Light Rain
8:01 PM 37.4 °F 30.8 °F 35.6 °F 93% 30.06 in 9.0 mi NNE 9.2 mph - N/A Rain Light Rain
8:34 PM 37.4 °F 30.3 °F 35.6 °F 93% 30.00 in 7.0 mi NNE 10.4 mph 19.6 mph N/A   Overcast
8:51 PM 37.4 °F 30.8 °F 35.6 °F 93% 30.05 in 10.0 mi North 9.2 mph - N/A Rain Light Rain
8:55 PM 37.2 °F 31.9 °F 35.4 °F 93% 30.05 in 10.0 mi North 6.9 mph - 0.09 in Rain Light Rain
9:25 PM 35.6 °F 29.2 °F 33.8 °F 93% 30.06 in 6.0 mi North 8.1 mph - N/A   Overcast
9:29 PM 35.6 °F 30.7 °F 33.8 °F 93% 30.07 in 6.0 mi North 5.8 mph - N/A   Overcast
9:35 PM 35.6 °F 31.7 °F 33.8 °F 93% 30.09 in 7.0 mi North 4.6 mph - N/A   Overcast
9:55 PM 34.5 °F 29.4 °F 32.9 °F 94% 30.05 in 5.0 mi North 5.8 mph - 0.18 in Snow Light Snow
9:57 PM 33.8 °F 27.7 °F 32.0 °F 93% 30.04 in 5.0 mi North 6.9 mph - N/A Snow Light Snow
10:41 PM 33.8 °F 27.0 °F 32.0 °F 93% 30.01 in 7.0 mi North 8.1 mph - N/A Snow Light Snow
10:54 PM 33.8 °F 27.7 °F 32.0 °F 93% 30.03 in 8.0 mi Variable 6.9 mph - N/A Snow Light Snow
10:55 PM 33.4 °F 28.1 °F 32.2 °F 95% 30.03 in 8.0 mi North 5.8 mph - 0.15 in Snow Light Snow
11:19 PM 33.8 °F 26.4 °F 32.0 °F 93% 30.07 in 7.0 mi NNW 9.2 mph - N/A Snow Light Snow
11:49 PM 33.8 °F 27.7 °F 32.0 °F 93% 30.06 in 5.0 mi North 6.9 mph - N/A Snow Light Snow
11:55 PM 33.3 °F 26.4 °F 32.0 °F 95% 30.06 in 4.0 mi NNE 8.1 mph - 0.12 in Snow Light Snow